Welcome to the New NWS' Forecast!
Most changes are behind the scenes, but click here for differences you might notice.

Regional Weather Roundup (RWR)

Issued by Gray - Portland, ME (GYX)

                            
000
ASUS41 KGYX 180110
RWRGYX
WEATHER ROUNDUP FOR MAINE AND NEW HAMPSHIRE
NATIONAL WEATHER SERVICE GRAY ME
900 PM EDT WED OCT 17 2018

MEZ002-005-006-010-012-015-018-020-021-024-026-027-029-180200-
MAINE
  
CITY           SKY/WX    TMP DP  RH WIND       PRES   REMARKS
PORTLAND       FAIR      43  34  70 W12       29.82R                  
SANFORD        FAIR      41  38  89 W7        29.83R                  
BAR HARBOR     FAIR      42  36  79 W6        29.74R                  
WISCASSET      FAIR      44  33  65 VRB6      29.81R                  
ROCKLAND       FAIR      45  30  55 W16G22    29.76R                  
FRYEBURG       FAIR      42  25  50 VRB6      29.82R                  
LEWISTONAUBURN FAIR      44  25  47 NW13G21   29.80R                  
AUGUSTA        FAIR      42  26  53 W8G16     29.78R                  
WATERVILLE     FAIR      41  27  57 W10       29.75R                  
BANGOR         FAIR      41  33  73 NW9       29.74R                  
GREENVILLE       N/A     35  26  69 NW13G22   29.67R                  
MILLINOCKET    CLOUDY    39  30  70 W10G16    29.71R                  
HOULTON        MOCLDY    38  33  82 W6        29.63R                  
PRESQUE ISLE   FAIR      33  31  92 W6        29.63R                  
FRENCHVILLE    CLOUDY    36  32  85 W8        29.58R                  
CARIBOU        FAIR      36  31  82 W3        29.60R                  
$$

NHZ002-005-008-009-011-012-014-180200-
NEW HAMPSHIRE
  
CITY           SKY/WX    TMP DP  RH WIND       PRES   REMARKS
PORTSMOUTH     MOCLDY    45  36  70 W6        29.84R                  
ROCHESTER      FAIR      41  39  93 VRB3      29.83R                  
NASHUA         LGT RAIN  44  39  82 W15G22    29.89R                  
MANCHESTER     MOCLDY    46  37  71 SW7       29.86R                  
CONCORD        FAIR      42  36  79 W9        29.86R                  
LACONIA        FAIR      38  36  92 NW3       29.84R                  
PLYMOUTH       FAIR      40  33  76 CALM      29.83S                  
BERLIN         FAIR      38  25  59 VRB6      29.78S                  
WHITEFIELD     FAIR      37  27  67 W6        29.82R                  
JAFFREY        RAIN      40  36  86 VRB6G28   29.89R FOG              
KEENE          MOCLDY    39  36  89 N5        29.90R                  
LEBANON        LGT RAIN  43  31  62 W7        29.86R                  
MT WASHINGTON  BLWGSNOW  16  16 100 NW62G71     N/A  VSB 0   WCI -11  
$$

VTZ005-007-008-180200-
VERMONT
  
CITY           SKY/WX    TMP DP  RH WIND       PRES   REMARKS
ST JOHNSBURY     N/A     40  29  64 MISG      29.84R                  
MONTPELIER     FLURRIES  35  33  92 NW12G20   29.91R                  
BURLINGTON     CLOUDY    42  28  57 NW14      29.92R                  
$$

MAZ007-012-024-CTZ003-RIZ002-NYZ038-NYZ072-180200-
SOUTHERN NEW ENGLAND AND NY
  
CITY           SKY/WX    TMP DP  RH WIND       PRES   REMARKS
BOSTON         FAIR      51  33  50 W16G32    29.88R                  
WORCESTER      FAIR      40  36  86 W15G22    29.89R                  
NANTUCKET      FAIR      53  38  56 NW21G33   29.90R                  
PROVIDENCE     FAIR      49  34  56 W15G22    29.94R                  
HARTFORD       MOCLDY    47  34  60 NW9       29.98R                  
ALBANY         FAIR      43  32  65 W13       29.99R                  
NEW YORK CITY  FAIR      55  33  43 W18G29    30.03R                  
$$

ANZ081-ANZ082-ANZ150-NHZ014-MEZ023>029-180200-
COASTAL MARINE OBSERVATIONS
  
STATION/POSITION TIME  TEMP    WIND        PRES    WAVE
                       AIR SEA DIR/SP/G            HT/PER
                 (UTC) (F)     (DEG/KT/KT) (MB)    (FT/S)
MOUNT DESERT ROC 0100   50     280/ 28/ 32 1006.8R
MATINICUS ROCK   0000   51     290/ 29/ 32 1006.3R
ISLE OF SHOALS   0000   48     270/ 21/ 23 1009.1R
JEFFREYS LEDGE   0006      56                N/A     5/ 5
$$

.............KEY..............
   WCI - WIND CHILL
   TC  - TEMPERATURE IN CELSIUS
   VSB - VISIBILITY IN MILES
   HX  - HEAT INDEX
   FAIR- INDICATES FEW OR NO CLOUDS BELOW 12,000 FT, WITH NO 
         SIGNIFICANT WEATHER AND/OR OBSTRUCTIONS TO VISIBILITY.